Leeuwarden, Netherlands

8:54 AM CET on January 16, 2018 (GMT +0100)
Leeuwarden Air Base

Weather History for EHLW - October, 2013

Change the Weather History Date:

Sunday, October 27, 2013

  Actual Average Record
Temperature  
Mean Temperature 56 °F -  
Max Temperature 58 °F 47 °F 68 °F (2005)
Min Temperature 53 °F 39 °F 24 °F (2003)
Degree Days  
Heating Degree Days 10    
Growing Degree Days 6 (Base 50)    
Moisture  
Dew Point 52 °F    
Average Humidity 84    
Maximum Humidity 94    
Minimum Humidity 72    
Precipitation  
Precipitation 0.28 in - - ()
Sea Level Pressure  
Sea Level Pressure 29.43 in    
Wind  
Wind Speed 17 mph ()    
Max Wind Speed 26 mph    
Max Gust Speed 44 mph    
Visibility 6.1 miles    
Events Rain    
Averages and records for this station are not official NWS values.
T = Trace of Precipitation, MM = Missing Value Source: Averaged Metar Reports

Daily Weather History Graph

Daily Weather History Graph

Search for Another Location

Airport or City:

Trip Planner

Search our weather history database for the weather conditions in past years. The results will help you decide how hot, cold, wet, or windy it might be!

Date:

Astronomy

Oct. 27, 2013 Rise Set
Actual Time 7:25 AM CET 5:14 PM CET
Civil Twilight 6:49 AM CET 5:51 PM CET
Nautical Twilight 6:09 AM CET 6:31 PM CET
Astronomical Twilight 5:28 AM CET 7:11 PM CET
Moon No Moon Rise 2:07 PM CET (10/27)
Length of Visible Light 11h 01m
Length of Day
9h 48m
Last Quarter, 45% of the Moon is Illuminated
Oct 27
Last Quarter
Nov 3
New
Nov 10
First Quarter
Nov 17
Full
Nov 25
Last Quarter

Hourly Weather History & Observations

Time (CET) Temp. Dew Point Humidity Pressure Visibility Wind Dir Wind Speed Gust Speed Precip Events Conditions
12:25 AM 55.4 °F 51.8 °F 88% 29.62 in 6.2 mi South 11.5 mph - N/A   Partly Cloudy
12:55 AM 55.4 °F 51.8 °F 88% 29.62 in 6.2 mi South 9.2 mph - N/A   Partly Cloudy
1:25 AM 55.4 °F 53.6 °F 94% 29.62 in 6.2 mi South 8.1 mph - N/A   Partly Cloudy
1:55 AM 57.2 °F 53.6 °F 88% 29.59 in 6.2 mi South 11.5 mph - N/A   Unknown
2:00 AM 57 °F 54 °F 88% 29.61 in 9 mi South 13.4 mph - -   Partly Cloudy
2:25 AM 57.2 °F 55.4 °F 94% 29.59 in 6.2 mi South 13.8 mph - N/A   Unknown
2:55 AM 57.2 °F 55.4 °F 94% 29.59 in 6.2 mi South 12.7 mph - N/A   Partly Cloudy
2:25 AM 57.2 °F 55.4 °F 94% 29.56 in 6.2 mi South 13.8 mph - N/A   Mostly Cloudy
2:55 AM 57.2 °F 53.6 °F 88% 29.56 in 6.2 mi South 13.8 mph - N/A   Scattered Clouds
3:25 AM 57.2 °F 53.6 °F 88% 29.56 in 6.2 mi South 13.8 mph - N/A   Partly Cloudy
3:55 AM 57.2 °F 53.6 °F 88% 29.53 in 6.2 mi South 17.3 mph - N/A   Overcast
3:59 AM 57.2 °F 53.6 °F 88% 29.53 in 6.2 mi South 17.3 mph - N/A   Overcast
4:14 AM 57.2 °F 53.6 °F 88% 29.53 in 6.2 mi South 16.1 mph - N/A   Mostly Cloudy
4:25 AM 57.2 °F 53.6 °F 88% 29.53 in 6.2 mi South 16.1 mph - N/A   Mostly Cloudy
4:55 AM 57.2 °F 53.6 °F 88% 29.50 in 6.2 mi South 17.3 mph - N/A   Overcast
5:25 AM 57.2 °F 53.6 °F 88% 29.50 in 6.2 mi SSW 18.4 mph - N/A   Overcast
5:55 AM 57.2 °F 53.6 °F 88% 29.47 in 6.2 mi South 17.3 mph - N/A   Overcast
6:25 AM 57.2 °F 51.8 °F 82% 29.47 in 6.2 mi SSW 18.4 mph 29.9 mph N/A   Overcast
6:55 AM 57.2 °F 51.8 °F 82% 29.44 in 6.2 mi South 16.1 mph - N/A   Overcast
7:00 AM 57 °F 53 °F 80% 29.45 in 25 mi South 17.9 mph - -   Partly Cloudy
7:06 AM 57.2 °F 51.8 °F 82% 29.44 in 6.2 mi South 18.4 mph - N/A   Overcast
7:25 AM 57.2 °F 51.8 °F 82% 29.44 in 6.2 mi South 18.4 mph - N/A   Overcast
7:39 AM 57.2 °F 53.6 °F 88% 29.42 in 3.7 mi SSW 20.7 mph 34.5 mph N/A   Overcast
7:47 AM 57.2 °F 53.6 °F 88% 29.42 in 5.0 mi SSW 20.7 mph 34.5 mph N/A   Overcast
7:55 AM 57.2 °F 53.6 °F 88% 29.42 in 6.2 mi South 19.6 mph - N/A   Overcast
8:03 AM 55.4 °F 53.6 °F 94% 29.42 in 6.2 mi South 19.6 mph - N/A Rain Light Rain
8:05 AM 55.4 °F 53.6 °F 94% 29.42 in 6.2 mi South 20.7 mph - N/A Rain Light Rain
8:12 AM 55.4 °F 53.6 °F 94% 29.42 in 6.2 mi South 20.7 mph - N/A Rain Light Rain
8:25 AM 55.4 °F 53.6 °F 94% 29.42 in 3.7 mi South 19.6 mph - N/A Rain Rain
8:29 AM 55.4 °F 53.6 °F 94% 29.42 in 3.7 mi South 19.6 mph - N/A Rain Rain
8:31 AM 55.4 °F 53.6 °F 94% 29.39 in 5.0 mi South 19.6 mph - N/A Rain Rain
8:50 AM 55.4 °F 53.6 °F 94% 29.39 in 6.2 mi South 18.4 mph - N/A Rain Light Rain
8:55 AM 55.4 °F 53.6 °F 94% 29.39 in 3.7 mi South 18.4 mph - N/A Rain Rain
8:57 AM 55.4 °F 53.6 °F 94% 29.39 in 5.6 mi South 18.4 mph - N/A Rain Light Rain Showers
9:25 AM 55.4 °F 53.6 °F 94% 29.39 in 5.6 mi South 20.7 mph - N/A Rain Rain
9:55 AM 57.2 °F 53.6 °F 88% 29.36 in 6.2 mi SSW 20.7 mph - N/A Rain Drizzle
10:05 AM 57.2 °F 53.6 °F 88% 29.36 in 6.2 mi SSW 20.7 mph 34.5 mph N/A   Partly Cloudy
10:12 AM 57.2 °F 53.6 °F 88% 29.36 in 6.2 mi SSW 20.7 mph 33.4 mph N/A   Mostly Cloudy
10:18 AM 57.2 °F 53.6 °F 88% 29.36 in 6.2 mi SSW 21.9 mph 33.4 mph N/A   Mostly Cloudy
10:25 AM 57.2 °F 53.6 °F 88% 29.36 in 6.2 mi SSW 20.7 mph - N/A   Overcast
10:32 AM 57.2 °F 53.6 °F 88% 29.36 in 6.2 mi SSW 20.7 mph - N/A   Overcast
10:45 AM 57.2 °F 53.6 °F 88% 29.36 in 6.2 mi SSW 20.7 mph - N/A   Mostly Cloudy
10:50 AM 57.2 °F 53.6 °F 88% 29.36 in 6.2 mi SW 20.7 mph - N/A   Mostly Cloudy
10:55 AM 59.0 °F 55.4 °F 88% 29.36 in 6.2 mi SSW 20.7 mph 33.4 mph N/A   Mostly Cloudy
10:59 AM 59.0 °F 53.6 °F 82% 29.36 in 6.2 mi SSW 21.9 mph 33.4 mph N/A   Overcast
11:05 AM 59.0 °F 53.6 °F 82% 29.36 in 6.2 mi SW 21.9 mph - N/A   Mostly Cloudy
11:14 AM 59.0 °F 53.6 °F 82% 29.36 in 6.2 mi SW 21.9 mph - N/A   Mostly Cloudy
11:20 AM 57.2 °F 53.6 °F 88% 29.36 in 3.7 mi SW 20.7 mph - N/A Rain Light Rain
11:25 AM 57.2 °F 53.6 °F 88% 29.36 in 6.2 mi SW 21.9 mph 36.8 mph N/A Rain Light Rain
11:45 AM 57.2 °F 53.6 °F 88% 29.36 in 6.2 mi SW 21.9 mph 33.4 mph N/A Rain Light Rain
11:46 AM 57.2 °F 51.8 °F 82% 29.36 in 4.3 mi SW 23.0 mph 36.8 mph N/A Rain Rain
11:55 AM 57.2 °F 51.8 °F 82% 29.36 in 6.2 mi SW 23.0 mph 36.8 mph N/A Rain Light Rain
12:06 PM 57.2 °F 51.8 °F 82% 29.36 in - SW 21.9 mph 35.7 mph N/A Rain Rain
12:07 PM 55.4 °F 50.0 °F 82% 29.36 in 3.7 mi SW 24.2 mph 43.7 mph N/A Rain Rain
12:12 PM 53.6 °F 48.2 °F 82% 29.36 in 6.2 mi SW 26.5 mph 43.7 mph N/A Rain Light Rain Showers
12:25 PM 53.6 °F 50.0 °F 88% 29.36 in 4.3 mi SW 20.7 mph 32.2 mph N/A   Mostly Cloudy
12:27 PM 55.4 °F 50.0 °F 82% 29.36 in 6.2 mi SW 20.7 mph 32.2 mph N/A Rain Light Rain
12:46 PM 55.4 °F 51.8 °F 88% 29.36 in 6.2 mi SW 20.7 mph 35.7 mph N/A   Mostly Cloudy
12:55 PM 55.4 °F 48.2 °F 77% 29.36 in 6.2 mi SW 20.7 mph - N/A   Mostly Cloudy
1:00 PM 56 °F 50 °F 74% 29.38 in 16 mi WSW 17.9 mph - - Rain Rain
1:15 PM 57.2 °F 50.0 °F 77% 29.36 in 6.2 mi WSW 21.9 mph 39.1 mph N/A   Partly Cloudy
1:25 PM 57.2 °F 50.0 °F 77% 29.39 in 6.2 mi WSW 26.5 mph 41.4 mph N/A   Scattered Clouds
1:33 PM 59.0 °F 50.0 °F 72% 29.39 in 6.2 mi WSW 23.0 mph 41.4 mph N/A   Mostly Cloudy
1:39 PM 59.0 °F 50.0 °F 72% 29.39 in 6.2 mi WSW 21.9 mph 35.7 mph N/A   Mostly Cloudy
1:43 PM 57.2 °F 50.0 °F 77% 29.39 in 6.2 mi WSW 24.2 mph 40.3 mph N/A   Mostly Cloudy
1:47 PM 57.2 °F 50.0 °F 77% 29.39 in 6.2 mi WSW 26.5 mph 40.3 mph N/A   Partly Cloudy
1:55 PM 57.2 °F 50.0 °F 77% 29.39 in 6.2 mi WSW 23.0 mph 38.0 mph N/A   Partly Cloudy
2:25 PM 59.0 °F 50.0 °F 72% 29.39 in 6.2 mi WSW 23.0 mph 35.7 mph N/A   Mostly Cloudy
2:55 PM 59.0 °F 50.0 °F 72% 29.39 in 6.2 mi WSW 20.7 mph 32.2 mph N/A   Partly Cloudy
3:25 PM 57.2 °F 50.0 °F 77% 29.42 in 6.2 mi SW 18.4 mph 31.1 mph N/A   Scattered Clouds
3:29 PM 57.2 °F 50.0 °F 77% 29.42 in 6.2 mi SW 18.4 mph 29.9 mph N/A   Mostly Cloudy
3:36 PM 57.2 °F 50.0 °F 77% 29.42 in 6.2 mi SW 18.4 mph 29.9 mph N/A   Mostly Cloudy
3:55 PM 57.2 °F 50.0 °F 77% 29.42 in 6.2 mi SW 21.9 mph 38.0 mph N/A   Mostly Cloudy
3:59 PM 57.2 °F 50.0 °F 77% 29.42 in 6.2 mi SW 23.0 mph 34.5 mph N/A   Scattered Clouds
4:25 PM 57.2 °F 50.0 °F 77% 29.42 in 6.2 mi SW 18.4 mph - N/A   Mostly Cloudy
4:55 PM 57.2 °F 48.2 °F 72% 29.42 in 6.2 mi SW 18.4 mph - N/A   Scattered Clouds
5:25 PM 55.4 °F 50.0 °F 82% 29.42 in 6.2 mi SSW 17.3 mph - N/A   Mostly Cloudy
5:42 PM 55.4 °F 51.8 °F 88% 29.42 in 6.2 mi SSW 19.6 mph - N/A   Mostly Cloudy
5:48 PM 57.2 °F 51.8 °F 82% 29.42 in 6.2 mi SSW 20.7 mph - N/A   Mostly Cloudy
5:55 PM 57.2 °F 51.8 °F 82% 29.42 in 6.2 mi SW 21.9 mph - N/A   Mostly Cloudy
6:25 PM 57.2 °F 51.8 °F 82% 29.42 in 6.2 mi SW 20.7 mph - N/A   Mostly Cloudy
6:55 PM 57.2 °F 51.8 °F 82% 29.42 in 6.2 mi SW 20.7 mph - N/A   Scattered Clouds
7:00 PM 56 °F 51 °F 77% 29.44 in 7 mi SW 20.1 mph - -   Partly Cloudy
7:25 PM 57.2 °F 50.0 °F 77% 29.42 in 6.2 mi SW 20.7 mph 32.2 mph N/A   Mostly Cloudy
7:55 PM 57.2 °F 50.0 °F 77% 29.42 in 6.2 mi SW 20.7 mph - N/A   Mostly Cloudy
8:25 PM 57.2 °F 51.8 °F 82% 29.44 in 6.2 mi SW 20.7 mph - N/A   Mostly Cloudy
8:55 PM 57.2 °F 50.0 °F 77% 29.44 in 6.2 mi SW 20.7 mph 32.2 mph N/A   Mostly Cloudy
9:25 PM 57.2 °F 50.0 °F 77% 29.42 in 6.2 mi SW 20.7 mph 32.2 mph N/A   Overcast
9:55 PM 57.2 °F 50.0 °F 77% 29.44 in 6.2 mi SW 21.9 mph - N/A   Mostly Cloudy
10:25 PM 57.2 °F 50.0 °F 77% 29.44 in 6.2 mi SW 19.6 mph - N/A   Partly Cloudy
10:55 PM 57.2 °F 51.8 °F 82% 29.42 in 6.2 mi SSW 17.3 mph - N/A   Mostly Cloudy